* Astronomy

Members Login
Post Info TOPIC: Asteroid 2010 JJ124


L

Posts: 131433
Date:
TNO 2010 JJ124
Permalink  
 


Orbital elements:
2010 JJ124
Epoch 2011 Aug. 27.0 TT = JDT 2455800.5                 MPC
M 359.43038              (2000.0)            P               Q
n   0.00130337     Peri.  339.24771     -0.29946452     +0.73159212
a  83.0026194      Node   268.80749     -0.76608376     -0.56699463
e   0.7154713      Incl.   37.77642     -0.56871493     +0.37853674
P 756              H    6.6           G   0.15           U   4

MPEC 2011 - M07

Ephemeris:
2010 JJ124               a,e,i = 83.00, 0.72, 38                 q = 23.617
Date    TT    R. A. (2000) Decl.     Delta      r     Elong.  Phase     V
2011 06 15    16 04 53.1 -37 39 04  22.7306 23.6660   156.6     1.0    20.4
2011 06 16    16 04 44.5 -37 38 06  22.7351 23.6658   155.9     1.0    20.4

H = 6.6,  (130 - 300 km in diameter).



__________________


L

Posts: 131433
Date:
Asteroid 2010 JJ124
Permalink  
 


Orbital elements:
2010 JJ124
Epoch 2010 May 4.0 TT = JDT 2455320.5 MPC
M 356.58729 (2000.0) P Q
n 0.00123196 Peri. 2.18362 -0.01573697 +0.77435413
a 86.1797605 Node 267.40763 -0.92669828 -0.24886459
e 0.7382539 Incl. 39.28696 -0.37547655 +0.58175777
P 800 H 6.6 G 0.15
From 9 observations 2010 May 11-25.

MPEC 2010 - K60


__________________
Page 1 of 1  sorted by
Quick Reply

Please log in to post quick replies.



Create your own FREE Forum
Report Abuse
Powered by ActiveBoard